Voltar ao catálogo

SOICAL

CONE

AtivoCiênciaLEO
NORAD 4132·PAYLOAD·🇺🇸 United States

Lançado Sep 30, 1969 de Vandenberg Space Force Base

Loading…

Próximas Passagens (próximas 24 horas)

TLE

AtualizadoSource: Space-Track

Época: Sep 14, 2026, 11:35 UTC

1 04132U 69082K   26257.48313197  .00000799  00000-0  31820-3 0  9995
2 04132  69.9914  68.6628 0009151 353.6550   6.4457 14.32144377933691

Acompanhe SOICAL em tempo real com AllMySat

Download on the App Store